Home > Weather > Portland > Past weeks

Flag for USA Past Weather in Portland, Maine, USA — Yesterday and Last 2 Weeks

Now
61 °F

Clear.


Feels Like: 61 °F
Forecast: 60 / 82 °F
Wind: 5 mph from West

Location: Portland - Portland International Jetport

Current Time: Jun 30, 2016 at 6:33:37 AM

Latest Report: Jun 30, 2016 at 5:51 AM


Visibility: 9 mi

Pressure: 29.91 "Hg

Humidity: 97%

Dew Point: 60 °F

Location of PortlandLocation

Past Weather in Portland — Graph

°F

Portland Temperature Yesterday

Maximum temperature yesterday: 72 °F (at 5:51 PM)
Minimum temperature yesterday: 64 °F (at 3:51 AM)
Average temperature yesterday: 67 °F

High & Low Weather Summary for the Past Weeks

 TemperatureHumidityPressure
High84 °F (Jun 21, 2:51 PM)100% (Jun 29, 10:51 AM)30.33 "Hg (Jun 29, 10:51 AM)
Low50 °F (Jun 16, 4:51 AM)24% (Jun 15, 4:51 PM)29.64 "Hg (Jun 21, 4:51 AM)
Average66 °F65%29.98 "Hg
* Reported Jun 15 4:51 AM — Jun 30 4:51 AM, Portland, Weather by CustomWeather, © 2016

Note: Actual official high and low records may vary slightly from our data, if they occured in-between our weather recording intervals... More about our weather records

Advertising

Portland Weather History for the Previous 24 Hours

Scroll right to see more
 ConditionsComfort  
Time TempWeatherWind HumidityBarometerVisibility
4:51 AM
Thu, Jun 30
60 °FClear.No wind96%29.89 "Hg8 mi
3:51 AM61 °FClear.3 mph93%29.88 "Hg10 mi
2:51 AM61 °FClear.No wind97%29.87 "Hg10 mi
1:51 AM62 °FFog.5 mph96%29.88 "Hg3 mi
12:51 AM63 °FFog.3 mph97%29.88 "Hg5 mi
11:55 PM
Wed, Jun 29
64 °FFog.3 mph94%29.88 "Hg1 mi
11:51 PM64 °FFog.No wind94%29.88 "Hg1 mi
10:51 PM65 °FPassing clouds.No wind94%29.87 "Hg10 mi
10:02 PM65 °FPassing clouds.6 mph94%29.88 "Hg9 mi
9:58 PM65 °FPassing clouds.No wind94%29.88 "Hg9 mi
8:51 PM66 °FOvercast.5 mph93%29.87 "Hg10 mi
7:51 PM69 °FPartly sunny.6 mph84%29.85 "Hg10 mi
7:00 PM71 °FPassing clouds.No wind78%29.86 "Hg10 mi
6:51 PM70 °FScattered clouds.3 mph81%29.85 "Hg10 mi
5:51 PM72 °FScattered clouds.6 mph73%29.85 "Hg10 mi
4:51 PM71 °FPartly sunny.7 mph81%29.83 "Hg10 mi
3:51 PM67 °FLight rain. More clouds than sun.3 mph90%29.84 "Hg10 mi
2:51 PM67 °FLight rain. More clouds than sun.3 mph93%29.86 "Hg10 mi
2:02 PM70 °FThunderstorms. Broken clouds.6 mph87%29.84 "Hg10 mi
1:51 PM70 °FMostly cloudy.5 mph87%29.84 "Hg10 mi
12:51 PM70 °FFog.3 mph90%29.86 "Hg4 mi
11:51 AM67 °FFog.5 mph97%29.88 "Hg1 mi
10:51 AM65 °FFog.5 mph100%29.88 "Hg1 mi
9:51 AM65 °FDrizzle. Fog.6 mph97%29.89 "Hg1 mi
9:00 AM65 °FDrizzle. Fog.6 mph97%29.89 "Hg1 mi
7:51 AM64 °FLight rain. Fog.6 mph97%29.88 "Hg2 mi
6:51 AM64 °FLight rain. Fog.5 mph97%29.88 "Hg1 mi
Weather by CustomWeather, © 2016

See weather overviewHow to use our weather pages